Tracking 21970 objects as of 25-Nov-2020
HD Live streaming from Space Station
objects crossing your sky now

ATLAS 2AS CENTAUR R/B

Track ATLAS 2AS CENTAUR R/B now!


NORAD ID: 24937
Int'l Code: 1997-050B
Perigee: 333.7 km
Apogee: 37,626.7 km
Inclination: 19.0 °
Period: 669.5 minutes
Semi major axis: 25351 km
RCS: 13.7884 m2 (large)
Launch date: September 4, 1997
Source: United States (US)
Launch site: AIR FORCE EASTERN TEST RANGE (AFETR)

Note: This is a ROCKET BODY
aabbcc
Your satellite tracking list
Your tracking list is empty




NASA's NSSDC Master Catalog

Two Line Element Set (TLE):
1 24937U 97050B   20329.39409042 +.00000488 +00000-0 +70010-3 0  9994
2 24937 019.0448 348.5660 7355275 020.3637 358.0429 02.15082354170469
Source of the keplerian elements: AFSPC